Regional Weather Roundup
Issued by NWS Green Bay, WI

Home | Current Version | Previous Version | Graphics & Text | Print | Product List | Glossary Off
Versions: 1 2 3 4 5 6 7 8 9 10 11 12 13 14 15 16 17 18 19 20 21 22 23 24 25 26 27 28 29 30 31 32 33 34 35 36 37 38 39 40 41 42 43 44 45 46 47 48 49 50

000
ASUS43 KGRB 230559
RWRGRB

NORTH-CENTRAL AND NORTHEAST WISCONSIN REGIONAL WEATHER ROUNDUP
NATIONAL WEATHER SERVICE GREEN BAY WI
100 AM CDT TUE SEP 23 2014

WIZ005-009-010>012-018-019-230700-
NORTH CENTRAL WISCONSIN

CITY           SKY/WX    TMP DP  RH WIND       PRES   REMARKS
IRONWOOD       CLEAR     52  48  87 W7        30.14S
MANITOWISH WTR NOT AVBL
ARBOR VITAE    NOT AVBL
EAGLE RIVER    NOT AVBL
LAND O LAKES   NOT AVBL
RHINELANDER    CLEAR     48  47  96 W6        30.21R
PHILLIPS       NOT AVBL
ANTIGO         NOT AVBL
TOMAHAWK       NOT AVBL
MERRILL        NOT AVBL
$$

WIZ013-073-230700-
NORTHEAST WISCONSIN

CITY           SKY/WX    TMP DP  RH WIND       PRES   REMARKS
IRON MOUNTAIN  CLEAR     49  46  90 CALM      30.15S
MARINETTE      CLEAR     54  46  76 W3        30.17S
$$

WIZ017-030-035>037-045-230700-
CENTRAL WISCONSIN

CITY           SKY/WX    TMP DP  RH WIND       PRES   REMARKS
MEDFORD        NOT AVBL
WAUSAU         CLEAR     49  48  97 NE3       30.20S
MOSINEE        NOT AVBL
MARSHFIELD     FOG       48  46  93 CALM      30.21S VSB 3/4
WISC RAPIDS    CLEAR     47  45  93 CALM      30.23S FOG
STEVENS POINT  NOT AVBL
WAUPACA        NOT AVBL
SHAWANO        NOT AVBL
CLINTONVILLE   NOT AVBL
$$

WIZ038-039-048-051-230700-
FOX VALLEY

CITY           SKY/WX    TMP DP  RH WIND       PRES   REMARKS
NWS GREEN BAY  CLEAR     49  47  93 CALM      30.21R
APPLETON       NOT AVBL
OSHKOSH        CLEAR     54  49  83 SW3       30.22S
FOND DU LAC    CLEAR     50  47  89 SW5       30.23S
$$

WIZ022-050-052-230700-
EAST CENTRAL WISCONSIN

CITY           SKY/WX    TMP DP  RH WIND       PRES   REMARKS
STURGEON BAY   CLEAR     55  48  76 W5        30.20R
MANITOWOC      NOT AVBL
SHEBOYGAN      CLEAR     47  46  97 S5        30.22S
$$

LMZ563-521-522-541>543-230700-
LAKESHORE

STATION/POSITION TIME  TEMP    WIND        PRES    VSBY  WAVE
                       AIR SEA DIR/SP/G                  HT/PER
                 (UTC) (F)     (DEG/KT/KT) (MB)    (MI)  (FT/S)
SHEBOYGAN LKSHOR 0500   57 54  250/  8/  9 1023.6F
KEWAUNEE LKSHORE 0500   52     300/  4/  4 1021.5S
NORTHPORT PIER   0500   60     240/  4/ 10 1021.3R
N MID LAKE BUOY  0500   58 57  230/ 14/ 16 1021.2R         3/ 4
S GREEN BAY BUOY 0500   59     VRB 10/ 12  1022.9S
CHAMBERS ISLAND  0500   56     210/  4/  8 1021.7R
MENOMINEE LKSHOR 0500   57     260/  6/ 10 1022.1F
$$



USA.gov is the U.S. government's official web portal to all federal, state and local government web resources and services.